Location: Chevoux
(46.3801°N, 4.9476°E)
Time: 11:27:19
(UTC+00:00)

Daily predictions for brighter satellites

Satellite Brightness Start Highest point End
(mag) Time Altitude Azimuth Time Altitude Azimuth Time Altitude Azimuth
Cosmos 1980 Rocket 2.3 19:38:36 10° NNW 19:44:14 72° ENE 19:49:52 10° SSE
Cosmos 2369 3.8 19:38:53 10° NNW 19:44:35 86° WSW 19:50:14 10° SSE
Cosmos 2058 3.0 19:40:43 10° S 19:44:54 87° E 19:49:08 10° N
Cosmos 2221 2.5 19:45:20 10° N 19:49:40 84° E 19:53:59 10° S
RESURS DK-1 2.3 19:46:09 10° SSW 19:50:16 69° ESE 19:54:25 10° NNE
ERBS 3.6 19:47:22 10° WNW 19:50:16 31° SW 19:53:10 10° SSE
COSMOS 2406 3.8 19:47:57 10° SW 19:53:36 65° WNW 19:59:18 10° NNE
BREEZE-M DEB (TANK) 3.4 19:50:43 10° SSW 19:53:52 43° SE 20:03:06 10° ENE
Cosmos 2322 Rocket 3.7 19:50:03 10° N 19:54:36 24° NE 19:59:06 10° E
IRS-1A Rocket 4.3 19:50:22 10° SSE 19:55:54 87° WSW 20:01:27 10° NNW
Cosmos 1689 Rocket 4.0 19:53:58 10° N 19:56:29 31° WNW 19:58:58 10° SW
BREEZE-M DEB (TANK) 3.3 19:56:48 10° WNW 19:59:44 86° NNE 20:08:03 10° ESE
MOS 1 4.5 19:54:32 10° SSE 20:00:12 79° WSW 20:05:54 10° NNW
Cosmos 1933 4.4 19:57:31 10° NNE 20:01:04 29° ENE 20:04:32 10° SE
Cosmos 1538 Rocket 4.2 19:56:08 10° S 20:01:09 50° ESE 20:06:09 10° NNE
Resurs 01 Rocket 1.7 19:59:28 10° SSE 20:03:52 70° ENE 20:08:19 10° N
Cosmos 2151 3.6 20:01:51 10° SSE 20:05:44 37° E 20:09:42 10° NNE
ERS-2 2.0 20:02:16 10° NNE 20:05:55 74° ESE 20:09:32 10° S
Cosmos 2098 Rocket 2.4 20:03:59 10° S 20:07:00 58° E 20:10:34 10° NNE
Cosmos 44 Rocket 4.2 20:01:53 10° SW 20:07:01 58° NW 20:12:13 10° NNE
Gbstr 26 Del rocket 3.2 20:05:08 10° WNW 20:08:48 53° NNE 20:12:40 10° E
Meteor 2-3 Rocket 4.3 20:05:44 10° SSE 20:10:55 39° E 20:16:10 10° NNE
Cosmos 2219 Rocket 4.5 20:13:27 10° NNE 20:15:23 12° NE 20:17:19 10° NE
Ariane Rocket 3.5 20:13:18 10° S 20:18:18 59° WSW 20:23:20 10° NNW
SL-16 R/B 2.8 20:18:04 10° NNW 20:23:31 45° NE 20:28:03 14° SE
Cosmos 1782 3.7 20:23:54 10° N 20:27:34 32° ENE 20:30:03 17° SE
Cosmos 371 Rocket 3.4 20:23:28 10° NNW 20:28:17 74° WSW 20:32:51 11° SSE
ARIANE 5 R/B 3.4 20:26:51 15° SE 20:30:06 38° ENE 20:34:13 10° N
GRACE-FO 1 4.5 20:27:53 10° N 20:31:31 82° E 20:35:03 10° S
GRACE-FO 2 4.5 20:28:20 10° N 20:31:58 83° E 20:35:30 10° S
Cosmos 1271 Rocket 3.1 20:30:16 10° N 20:34:11 52° ENE 20:36:55 18° SSE
SPOT 1/Viking Rocket 3.5 20:31:18 12° SSE 20:36:12 84° ENE 20:41:27 10° NNW
USA 276 2.2 20:33:17 10° WNW 20:36:28 74° NNE 20:38:32 19° ESE
BREEZE-M DEB (TANK) 2.5 20:34:36 10° WNW 20:37:32 72° SSW 20:43:14 15° ESE
Cosmos 2195 Rocket 4.5 20:31:59 10° S 20:38:00 63° E 20:44:03 10° NNE
Cosmos 1076 Rocket 4.2 20:33:55 10° SSW 20:38:11 57° WNW 20:42:31 10° N
Cosmos 1766 Rocket 4.4 20:37:41 18° SE 20:40:11 32° E 20:44:05 10° NNE
Cosmos 1151 Rocket 3.7 20:37:06 10° N 20:41:11 38° ENE 20:43:40 20° SE
ATLAS 5 CENTAUR R/B 4.4 20:38:29 10° NNW 20:41:44 16° NNE 20:45:19 10° ENE
ATLAS 2AS CENTAUR R/B 4.0 20:37:07 10° WSW 20:44:48 51° NW 20:52:16 10° NE
Cosmos 923 Rocket 4.1 20:42:18 10° S 20:47:30 57° ESE 20:52:44 10° NNE
ATLAS 3B R/B 3.3 20:43:43 10° NW 20:50:40 57° WSW 20:56:42 15° SSE
Terra 2.6 20:47:56 20° ESE 20:50:41 37° ENE 20:55:04 10° N
SPOT 5 2.9 20:50:48 23° SE 20:53:18 51° ENE 20:57:34 10° N
USA 267 4.1 20:49:37 10° ENE 20:54:53 25° SE 20:59:02 14° S
Cosmos 2082 Rocket 3.6 20:50:46 10° SW 20:56:04 41° NW 21:01:25 10° NNE
Cosmos 1092 Rocket 4.0 20:49:49 10° S 20:56:05 89° E 21:02:26 10° N
Cosmos 2056 Rocket 4.2 20:54:02 10° N 20:59:08 43° ENE 21:02:09 22° ESE
NOSS 2-1 (C) 4.3 21:00:51 21° E 21:00:51 21° E 21:02:38 10° ENE
BREEZE-M DEB (TANK) 2.6 20:59:52 10° W 21:02:13 45° N 21:03:12 21° NE
ERS-1 Rocket 3.0 21:00:35 23° SSE 21:03:42 69° ENE 21:08:42 10° N
Cosmos 332 Rocket 4.3 21:00:47 10° NNW 21:05:35 56° WSW 21:08:59 19° S
SL-27 R/B 3.8 21:06:23 23° E 21:06:23 23° E 21:09:04 10° NE
Cosmos 2360 Rocket 2.8 21:01:29 10° NNW 21:06:54 45° ENE 21:10:08 23° ESE
Cosmos 158 Rocket 4.5 21:02:22 10° SSW 21:07:27 63° WNW 21:12:44 10° NNE
NOSS 2-1 (D) 3.9 21:08:18 27° E 21:08:18 27° E 21:10:28 10° ENE
Cosmos 2026 Rocket 4.0 21:02:41 10° S 21:09:03 90° W 21:15:22 10° N
GP-B 3.2 21:08:38 10° N 21:13:05 76° W 21:16:14 19° S
ISS -2.6 21:12:22 10° WNW 21:15:23 30° SW 21:15:56 28° SSW
Cosmos 2333 Rocket 3.5 21:12:21 10° N 21:17:17 30° NE 21:20:38 17° E
Spot 2 Rocket 3.8 21:14:48 20° S 21:18:20 64° WSW 21:23:26 10° NNW
Cosmos 1371 Rocket 4.1 21:15:22 10° NNW 21:20:45 70° ENE 21:23:22 31° SE
Cosmos 1812 2.7 21:18:03 10° N 21:21:55 66° E 21:23:04 41° SE
Cosmos 2112 Rocket 3.9 21:17:49 16° S 21:22:07 72° ESE 21:27:23 10° NNE
Cosmos 1680 Rocket 3.4 21:17:27 11° SSW 21:22:36 84° ESE 21:27:54 10° NNE
Cosmos 220 Rocket 3.9 21:19:48 10° NNW 21:24:10 82° ENE 21:25:50 37° SSE
Cosmos 1980 Rocket 4.3 21:23:50 10° WNW 21:27:37 19° W 21:31:23 10° SW
Okean 3 Rocket 3.6 21:24:58 24° S 21:27:38 86° WNW 21:32:10 10° N
USA 234 4.2 21:23:41 10° E 21:29:50 45° NNE 21:36:00 10° NW
Cosmos 292 Rocket 4.3 21:27:20 10° NNW 21:31:56 46° ENE 21:33:40 32° ESE
Cosmos 2322 Rocket 2.3 21:33:34 10° NNW 21:39:10 67° WSW 21:41:46 32° S
Resurs 01 Rocket 4.3 21:38:44 10° WSW 21:40:51 13° W 21:42:59 10° WNW
Cosmos 1408 Rocket 3.5 21:40:12 44° SSE 21:41:29 70° E 21:45:49 10° NNE
Cosmos 1743 Rocket 4.2 21:42:22 37° ESE 21:42:55 39° E 21:47:03 10° NNE
Meteor 2-14 Rocket 4.5 21:43:59 22° SSW 21:48:09 82° W 21:54:19 10° N
Cosmos 2084 3.2 21:48:51 22° SW 21:51:26 86° NW 21:55:38 10° NE
Cosmos 1553 Rocket 4.1 21:46:16 10° NNW 21:52:17 67° W 21:55:36 28° SSW
CZ-4B DEB 4.4 21:53:29 64° W 21:53:29 64° W 21:56:38 10° NNW
Gbstr 26 Del rocket 3.5 21:51:56 10° WNW 21:55:27 37° SW 21:55:27 37° SW
Cosmos 2266 Rocket 4.0 21:53:29 36° SSE 21:56:03 67° E 22:02:14 10° NNE
Cosmos 1862 3.6 21:57:03 39° SW 21:58:19 61° WNW 22:02:17 10° N
Cosmos 2219 Rocket 2.7 21:55:24 10° NNW 22:00:49 48° ENE 22:02:58 32° ESE
Cosmos 1624 Rocket 4.2 21:56:03 10° NNW 22:01:11 61° WSW 22:02:57 39° SSW
Cosmos 2228 Rocket 3.4 22:01:12 10° N 22:05:31 50° ENE 22:06:05 47° ESE
NOSS 2-1 (E) 3.0 22:05:22 65° W 22:05:35 69° NW 22:09:01 10° NE
Cosmos 1515 Rocket 3.7 22:01:16 10° NNW 22:05:41 66° W 22:06:43 48° SSW
H-2A R/B 3.5 22:02:00 10° NNE 22:06:13 80° WNW 22:07:15 51° SSW
ARIANE 5 R/B 4.5 22:04:24 17° SW 22:06:38 24° W 22:10:16 10° NW
SL-16 R/B 3.5 22:02:29 10° NW 22:07:26 31° WSW 22:09:55 22° SW
NOSS 3-1 (C) 4.1 22:02:32 10° NW 22:09:59 79° NE 22:14:30 32° SE
Cosmos 2333 4.1 22:04:51 10° NNW 22:10:29 77° ENE 22:12:13 46° SE
COSMOS 2455 3.0 22:09:10 43° SSE 22:10:30 51° ESE 22:16:19 10° NE
Cosmos 1420 Rocket 4.0 22:06:54 10° NNW 22:12:14 74° WSW 22:13:43 48° S
Cosmos 883 Rocket 4.4 22:08:26 10° N 22:14:42 82° E 22:16:57 43° SSE
COSMOS 2428 3.2 22:10:01 10° NNW 22:15:36 51° ENE 22:17:35 35° ESE
Cosmos 1655 Rocket 4.1 22:12:44 32° SSW 22:15:57 80° W 22:22:23 10° N
S3M 4.4 22:16:19 10° NNW 22:22:34 60° W 22:25:25 33° SSW
Spot 4 4.0 22:21:45 50° ESE 22:22:37 59° ENE 22:27:22 10° N
USA 229 DEB 4.1 22:16:54 10° NW 22:24:09 65° NE 22:28:16 29° ESE
USA 229 4.1 22:17:00 10° NW 22:24:15 65° NE 22:28:23 29° ESE
ATLAS 5 CENTAUR R/B 3.0 22:22:18 10° NNW 22:27:33 48° NE 22:30:39 27° ESE
Terra 3.3 22:26:49 22° SW 22:28:30 27° W 22:32:35 10° NW
COSMOS 2487 3.5 22:31:49 38° NE 22:31:49 38° NE 22:34:04 10° NNE
Cosmos 1452 Rocket 3.4 22:26:30 10° NNW 22:31:47 86° ENE 22:32:49 59° SSE
Cosmos 1707 Rocket 4.2 22:27:58 10° N 22:32:09 43° ENE 22:32:18 42° E
ALOS 2 3.2 22:33:57 42° E 22:34:20 43° ENE 22:38:29 10° N
USA 267 3.1 22:31:55 10° NE 22:38:29 83° SE 22:45:03 10° SW
SL-27 R/B 4.5 22:39:50 21° W 22:41:05 25° WNW 22:44:10 10° N
Meteor 1-27 Rocket 4.0 22:37:08 10° NNW 22:42:41 59° W 22:44:14 44° SSW
NOSS 3-1 (A) 4.1 22:37:12 10° NW 22:44:41 80° NE 22:48:48 35° SE
Cosmos 1805 Rocket 3.6 22:49:13 70° WSW 22:49:31 73° W 22:53:58 10° N
Cosmos 2360 Rocket 3.3 22:45:49 10° NW 22:50:42 31° WSW 22:51:53 29° SW
Nadezhda 2 Rocket 4.5 22:49:09 51° SSE 22:50:47 72° E 22:57:11 10° NNE
Meteor 1-20 Rocket 4.1 22:54:51 59° S 22:56:00 89° ESE 23:01:44 10° N
Cosmos 1110 Rocket 4.0 22:52:29 10° NNW 22:57:51 77° ENE 22:58:40 62° SE
Cosmos 1980 4.4 22:53:59 10° NNW 22:59:27 45° ENE 23:01:19 34° ESE
Cosmos 2333 Rocket 2.5 22:56:22 10° NW 23:01:51 52° WSW 23:02:38 48° SW
Cosmos 1331 Rocket 3.9 22:58:01 10° NNW 23:03:17 77° ENE 23:03:58 65° SE
Cosmos 1244 Rocket 4.4 23:03:47 55° S 23:05:15 84° E 23:11:29 10° N
COBE Rocket 4.5 23:09:07 40° WSW 23:09:25 41° W 23:13:51 10° NNW
Cosmos 2322 4.2 23:06:35 10° NW 23:12:02 46° WSW 23:12:44 43° SW
USA 234 3.1 23:10:02 42° SE 23:12:33 85° SW 23:19:09 10° NW
NOSS 0 Rocket 3.9 23:08:11 10° NNW 23:14:27 82° ENE 23:16:01 53° SE
Cosmos 2297 Rocket 2.9 23:17:11 38° ESE 23:17:11 38° ESE 23:22:22 10° NE
Lacrosse 5 3.1 23:21:58 29° E 23:21:58 29° E 23:25:02 10° ENE
Cosmos 2237 Rocket 2.5 23:16:58 10° NNW 23:22:38 62° ENE 23:24:02 47° ESE
Cosmos 2084 Rocket 3.9 23:19:50 10° NNW 23:23:58 56° NE 23:24:07 55° NE
Meteor 1-18 Rocket 4.2 23:20:07 10° NNW 23:26:00 81° W 23:26:57 63° S
Cosmos 1500 3.8 23:26:57 56° N 23:26:57 56° N 23:30:04 10° N
Cosmos 1470 Rocket 3.9 23:29:03 57° ENE 23:29:03 57° ENE 23:32:52 10° NNE
Cosmos 2227 Rocket 3.0 23:28:54 35° ESE 23:28:54 35° ESE 23:33:59 10° NE
Sich 1 4.1 23:28:46 36° W 23:29:07 36° WNW 23:33:10 10° N
Okean 1 4.1 23:28:30 10° NNW 23:31:46 44° WNW 23:31:46 44° WNW
Cosmos 1633 Rocket 3.2 23:33:06 68° WNW 23:33:06 68° WNW 23:37:17 10° N
Cosmos 494 Rocket 4.4 23:33:16 47° WSW 23:34:19 55° WNW 23:39:22 10° NNE
Cosmos 1933 Rocket 4.2 23:35:34 46° ENE 23:35:34 46° ENE 23:39:32 10° NNE
Cosmos 1666 Rocket 4.0 23:37:07 51° W 23:37:09 51° WNW 23:41:30 10° N
Meteor 1-11 Rocket 4.5 23:41:19 35° ESE 23:42:00 36° E 23:47:00 10° NNE
Cosmos 2219 Rocket 3.3 23:39:48 10° NW 23:44:31 29° WSW 23:44:40 29° WSW
NOSS 2-2 (C) 4.5 23:44:15 10° NW 23:49:31 75° NE 23:52:23 37° SE
SL-16 R/B 3.3 23:44:33 10° NNW 23:49:52 39° NE 23:52:42 24° ESE
Cosmos 1269 Rocket 3.9 23:50:05 74° SSE 23:50:26 77° ESE 23:55:43 10° NNE
PSLV R/B 3.8 23:47:27 10° NNE 23:52:12 67° E 23:52:12 67° E
Resurs 1-4 Rocket 4.2 23:51:12 10° NE 23:53:57 14° E 23:55:13 13° ESE
